Volver al catálogo

NOAA 16 DEB

ActivoSSO
NORAD 41164·DEBRIS·🇺🇸 United States

Lanzado Sep 21, 2000 desde Vandenberg Space Force Base

Loading…

Próximos Pases (próximas 24 horas)

TLE

ActualizadoSource: Space-Track

Época: Sep 12, 2026, 11:00 UTC

1 41164U 00055CX  26255.45844390  .00003403  00000-0  15404-2 0  9999
2 41164  98.9651 339.6961 0058353 139.7007 220.8516 14.21760132552467

Sigue NOAA 16 DEB en tiempo real con AllMySat

Download on the App Store